Home   Weather   Khartoum   Past weeks
Flag for Sudan

Past Weather in Khartoum, Sudan — Yesterday and Last 2 Weeks

Now
84 °F

Clear.


Feels Like: 81 °F
Forecast: 94 / 70 °F
Wind: 8 mph from North

Location: Khartoum Airport

Current Time: Mar 26, 2019 at 8:53:22 pm

Latest Report: Mar 26, 2019 at 8:00 pm


Visibility: 10 mi

Pressure: 29.98 "Hg

Humidity: 11%

Dew Point: 25 °F

Location of KhartoumLocation

Past Weather in Khartoum — Graph

°F

Khartoum Temperature Yesterday

Maximum temperature yesterday: 95 °F (at 3:00 pm)
Minimum temperature yesterday: 75 °F (at 6:00 am)
Average temperature yesterday: 83 °F

High & Low Weather Summary for the Past Weeks

 TemperatureHumidityPressure
High108 °F (Mar 24, 1:30 pm)39% (Mar 15, 10:00 pm)30.04 "Hg (Mar 15, 10:00 pm)
Low66 °F (Mar 17, 5:30 am)4% (Mar 15, 3:00 pm)29.62 "Hg (Mar 24, 2:30 pm)
Average85 °F12%29.86 "Hg
* Reported Mar 11 7:00 pm — Mar 26 7:30 pm, Khartoum. Weather by CustomWeather, © 2019

Note: Actual official high and low records may vary slightly from our data, if they occured in-between our weather recording intervals... More about our weather records

Advertising

Khartoum Weather History for the Previous 24 Hours

Scroll right to see more
 ConditionsComfort  
Time TempWeatherWind HumidityBarometerVisibility
7:30 pm
Tue, Mar 26
84 °FClear.9 mph11%29.95 "Hg10 mi
7:00 pm84 °FClear.9 mph11%29.95 "Hg10 mi
6:30 pm86 °FClear.10 mph9%29.95 "Hg10 mi
6:00 pm88 °FSunny.14 mph11%29.92 "Hg10 mi
5:30 pm90 °FSunny.13 mph8%29.92 "Hg10 mi
5:00 pm91 °FSunny.15 mph10%29.92 "Hg10 mi
4:30 pm91 °FSunny.13 mph10%29.89 "Hg10 mi
4:00 pm91 °FSunny.13 mph10%29.89 "Hg10 mi
3:30 pm91 °FSunny.13 mph10%29.89 "Hg10 mi
3:00 pm91 °FSunny.14 mph10%29.92 "Hg10 mi
2:00 pm91 °FSunny.14 mph10%29.92 "Hg10 mi
1:30 pm88 °FSunny.17 mph13%29.95 "Hg10 mi
1:00 pm88 °FSunny.15 mph13%29.95 "Hg10 mi
12:30 pm86 °FSunny.17 mph13%29.95 "Hg10 mi
12:00 pm84 °FSunny.16 mph14%29.98 "Hg10 mi
11:30 am84 °FSunny.17 mph13%30.01 "Hg10 mi
11:00 am82 °FPleasantly warm.21 mph13%30.01 "Hg5 mi
10:30 am81 °FPleasantly warm.21 mph16%30.01 "Hg5 mi
10:00 am81 °FPleasantly warm.20 mph16%30.01 "Hg5 mi
9:30 am79 °FPleasantly warm.20 mph17%30.01 "Hg5 mi
9:00 am77 °FPleasantly warm.20 mph18%30.01 "Hg5 mi
8:30 am77 °FPleasantly warm.18 mph19%30.01 "Hg5 mi
8:00 am73 °FMild.17 mph22%30.01 "Hg5 mi
7:30 am72 °FSunny.15 mph22%30.01 "Hg10 mi
7:00 am70 °FSunny.15 mph23%30.01 "Hg10 mi
6:30 am70 °FSunny.9 mph23%29.98 "Hg10 mi
6:00 am70 °FSunny.12 mph27%29.98 "Hg10 mi
5:30 am70 °FClear.12 mph27%29.95 "Hg10 mi
5:00 am72 °FClear.13 mph25%29.95 "Hg10 mi
4:30 am72 °FClear.12 mph22%29.95 "Hg10 mi
4:00 am72 °FClear.14 mph22%29.95 "Hg10 mi
3:30 am72 °FClear.14 mph22%29.92 "Hg10 mi
3:00 am73 °FClear.15 mph20%29.92 "Hg10 mi
2:30 am73 °FClear.14 mph19%29.95 "Hg10 mi
2:00 am75 °FClear.14 mph16%29.92 "Hg10 mi
1:30 am75 °FClear.15 mph19%29.92 "Hg10 mi
1:00 am75 °FClear.15 mph18%29.92 "Hg10 mi
12:00 am77 °FClear.14 mph18%29.95 "Hg10 mi
11:30 pm
Mon, Mar 25
77 °FClear.13 mph18%29.95 "Hg10 mi
11:00 pm79 °FClear.13 mph15%29.92 "Hg10 mi
10:30 pm79 °FClear.13 mph17%29.92 "Hg10 mi
10:00 pm81 °FPleasantly warm.13 mph16%29.92 "Hg5 mi
9:30 pm81 °FPleasantly warm.14 mph16%29.92 "Hg4 mi
9:00 pm82 °FPleasantly warm.13 mph15%29.89 "Hg4 mi
8:30 pm84 °FSandstorm.14 mph13%29.89 "Hg2 mi
8:00 pm84 °FSandstorm.14 mph13%29.89 "Hg2 mi
Weather by CustomWeather, © 2019

See weather overview